Find Starlink 3218

NORAD ID: 49725 Int'l Des: 2021-115 Owner: SPXS Country: US Constellation: starlink operational
LEOCIRCULAR

現在のビュー

3D地球を読み込み中...

About Starlink 3218

Starlink 3218 (NORAD 49725) is a starlink constellation satellite (v1.5) launched Dec 2, 2021 by SPXS of US. It operates in LEO, CIRCULAR orbit with a mass of 290.00 kg.

Starlink 3218について

説明を読み込み中...

次回通過

Passes for default location (London). Set your location on the main map for personalized predictions.

高度履歴

Loading altitude history...

軌道要素

1 49725U 21115B 26171.34724750 .00000178 00000-0 29283-4 0 9990
2 49725 53.1617 48.2659 0001498 89.9266 270.1897 15.08834422251030
Epoch: Jun 20, 2026 • Age: 21 hours

現在のステータス

高度 540.1 km
速度 7.60 km/s
衛星直下点 24.42°N, 149.81°W
打ち上げ日 Dec 2, 2021
運用期間 4.5 years
タイプ internet

技術仕様

分類 Payload
質量 290.00 kg
乾燥質量 270.00 kg
総質量 290.00 kg
長さ 0.20 m
直径 2.80 m
スパン 9.00 m
形状 Box + pan
製造者 SPXS
バスタイプ Starlink
フェーズステータス In Orbit
所有者/国 SPXS/US

Most Searched